FW2321 Weather Reports


Display with metric or nautical units.
time (UTC)temp
F
wind
direction
speed
MPH
gust
MPH
rain 1hr
in
rain 24hr
in
rain mn
in
humidity
%
barometer
mb
20260905163053 75 28 3.0 6.0 0.00 0.00 0.00 92 1016.2
20260905162535 75 49 1.0 5.0 0.00 0.00 0.00 93 1016.1
20260905162034 75 22 2.0 5.0 0.00 0.00 0.00 92 1016.1
20260905161551 75 21 2.0 5.0 0.00 0.00 0.00 93 1016.1
20260905161035 75 10 2.0 7.0 0.00 0.00 0.00 93 1016.1
20260905160535 75 22 2.0 7.0 0.00 0.00 0.00 93 1016.1
20260905160059 75 25 2.0 8.0 0.00 0.00 0.00 94 1016.2
20260905155535 74 26 4.0 8.0 0.00 0.19 0.00 94 1016.1
20260905155033 74 35 2.0 8.0 0.00 0.19 0.00 95 1016.1
20260905154559 74 36 3.0 8.0 0.00 0.19 0.00 95 1016.0
20260905154039 74 19 4.0 8.0 0.00 0.19 0.00 95 1016.0
20260905153536 73 21 3.0 8.0 0.00 0.19 0.00 97 1016.0
20260905153051 73 44 3.0 8.0 0.00 0.19 0.00 98 1016.0
20260905152535 72 24 4.0 10.0 0.00 0.19 0.00 96 1016.0
20260905152033 72 44 3.0 10.0 0.00 0.19 0.00 97 1016.0
20260905151612 73 31 4.0 8.0 0.00 0.19 0.00 97 1016.0
20260905151035 73 49 3.0 7.0 0.00 0.19 0.00 97 1016.1
20260905150535 73 45 0.0 9.0 0.00 0.19 0.00 97 1015.8
20260905150058 72 56 4.0 9.0 0.00 0.19 0.00 97 1015.6
20260905145535 72 41 4.0 9.0 0.00 0.19 0.00 97 1015.6
20260905145034 73 57 0.0 9.0 0.00 0.19 0.00 98 1015.6
20260905144558 72 43 2.0 6.0 0.00 0.19 0.00 98 1015.6
20260905144037 72 69 2.0 8.0 0.00 0.19 0.00 98 1015.5
20260905143537 72 52 3.0 8.0 0.00 0.19 0.00 98 1015.4
20260905143053 72 28 1.0 9.0 0.00 0.19 0.00 99 1015.4
20260905142533 72 44 3.0 9.0 0.00 0.19 0.00 99 1015.3
20260905142033 72 63 4.0 9.0 0.00 0.19 0.00 99 1015.3
20260905141550 72 26 2.0 7.0 0.00 0.19 0.00 99 1015.3
20260905141033 72 49 2.0 7.0 0.00 0.19 0.00 100 1015.2
20260905140537 72 46 2.0 7.0 0.00 0.19 0.00 100 1015.2
20260905140057 72 71 1.0 9.0 0.00 0.19 0.00 100 1015.2
20260905135536 71 39 1.0 9.0 0.00 0.19 0.00 100 1015.1
20260905135034 71 33 4.0 9.0 0.00 0.19 0.00 100 1015.1
20260905134559 71 57 4.0 9.0 0.00 0.19 0.00 100 1015.1
20260905134034 71 53 3.0 9.0 0.00 0.19 0.00 100 1015.2
20260905133535 71 45 3.0 9.0 0.00 0.19 0.00 100 1015.3
20260905133056 71 47 2.0 8.0 0.00 0.19 0.00 100 1015.2
20260905132533 71 43 2.0 9.0 0.00 0.19 0.00 100 1015.1
20260905132038 71 50 3.0 9.0 0.00 0.19 0.00 100 1015.1
20260905131932 70 41 3.0 6.0 0.00 0.19 0.00 100 1015.2
20260905131035 70 64 3.0 6.0 0.00 0.19 0.00 100 1015.4
20260905130535 70 36 2.0 5.0 0.00 0.19 0.00 100 1015.6
20260905130056 70 48 2.0 5.0 0.00 0.19 0.00 100 1015.6
20260905125534 70 40 2.0 6.0 0.00 0.19 0.00 100 1015.4
20260905125034 70 29 2.0 6.0 0.00 0.19 0.00 100 1015.3
20260905124553 70 24 2.0 7.0 0.00 0.19 0.00 100 1015.2
20260905124034 70 19 3.0 7.0 0.00 0.19 0.00 100 1015.0
20260905123534 70 48 2.0 8.0 0.00 0.19 0.00 100 1014.9
20260905123052 70 46 2.0 8.0 0.00 0.19 0.00 100 1015.0
20260905122535 70 40 4.0 8.0 0.00 0.19 0.00 100 1014.9
20260905122033 70 43 2.0 7.0 0.00 0.19 0.00 100 1014.7
20260905121554 70 61 2.0 6.0 0.00 0.19 0.00 100 1014.6
20260905121035 70 50 3.0 9.0 0.00 0.19 0.00 100 1014.4
20260905120539 69 44 2.0 9.0 0.00 0.19 0.00 100 1014.4
20260905120056 69 51 1.0 9.0 0.00 0.19 0.00 100 1014.2
20260905115534 69 61 1.0 9.0 0.00 0.20 0.00 100 1014.4
20260905115034 69 71 2.0 9.0 0.00 0.20 0.00 100 1014.2
20260905114558 69 31 3.0 9.0 0.00 0.20 0.00 100 1014.3
20260905114035 69 58 1.0 9.0 0.00 0.20 0.00 100 1014.2
20260905113535 69 55 2.0 9.0 0.00 0.20 0.00 100 1014.2
20260905113053 69 56 1.0 5.0 0.00 0.20 0.00 100 1014.0
20260905112534 69 55 1.0 5.0 0.00 0.20 0.00 100 1013.9
20260905112035 69 37 1.0 6.0 0.00 0.20 0.00 100 1013.7
20260905111552 69 37 2.0 6.0 0.00 0.20 0.00 100 1013.8
20260905111123 69 0 2.0 6.0 0.00 0.20 0.00 100 1013.6
20260905110533 69 61 2.0 6.0 0.00 0.20 0.00 100 1013.5
20260905110112 69 38 2.0 5.0 0.00 0.20 0.00 100 1013.5
20260905105534 69 45 2.0 4.0 0.00 0.22 0.00 100 1013.6
20260905105037 69 0 1.0 4.0 0.00 0.22 0.00 100 1013.4
20260905104558 69 44 1.0 4.0 0.00 0.22 0.00 100 1013.4
20260905104038 69 43 0.0 5.0 0.00 0.22 0.00 100 1013.4
20260905103537 69 44 1.0 5.0 0.00 0.22 0.00 100 1013.5
20260905103054 69 44 2.0 5.0 0.00 0.22 0.00 100 1013.3
20260905102533 69 0 1.0 5.0 0.00 0.22 0.00 100 1013.4
20260905102033 69 47 2.0 5.0 0.00 0.22 0.00 100 1013.3
20260905101604 69 0 2.0 4.0 0.00 0.22 0.00 100 1013.3
20260905101034 69 46 1.0 4.0 0.00 0.22 0.00 100 1013.2
20260905100537 69 51 1.0 4.0 0.00 0.22 0.00 100 1013.2
20260905100101 69 51 1.0 4.0 0.00 0.22 0.00 100 1013.1
20260905095535 69 0 1.0 4.0 0.00 0.22 0.00 100 1013.2
20260905095035 69 49 1.0 2.0 0.00 0.22 0.00 100 1013.2
20260905094552 69 0 0.0 4.0 0.00 0.22 0.00 100 1013.1
20260905094033 69 0 1.0 4.0 0.00 0.22 0.00 100 1013.2
20260905093535 69 52 2.0 4.0 0.00 0.22 0.00 100 1013.1
20260905093106 69 55 2.0 4.0 0.00 0.22 0.00 100 1013.1
20260905092533 69 54 1.0 4.0 0.00 0.22 0.00 100 1013.3
20260905092033 69 55 0.0 4.0 0.00 0.22 0.00 100 1013.2
20260905091603 68 0 0.0 4.0 0.00 0.22 0.00 100 1013.2
20260905091033 68 55 0.0 3.0 0.00 0.22 0.00 100 1013.1
20260905090535 68 0 0.0 0.0 0.00 0.22 0.00 100 1013.3
20260905085539 68 0 0.0 0.0 0.00 0.23 0.00 100 1013.4
20260905085035 68 0 0.0 0.0 0.00 0.23 0.00 100 1013.3
20260905084557 68 0 0.0 0.0 0.00 0.23 0.00 100 1013.2
20260905084034 68 0 0.0 0.0 0.00 0.23 0.00 100 1013.2
20260905083534 68 0 0.0 0.0 0.00 0.23 0.00 100 1013.2
20260905083053 68 0 0.0 0.0 0.00 0.23 0.00 100 1013.2
20260905082533 68 0 0.0 0.0 0.00 0.23 0.00 100 1013.2
20260905082033 68 0 0.0 0.0 0.00 0.23 0.00 100 1013.1
20260905081552 69 0 0.0 0.0 0.00 0.23 0.00 100 1013.1
20260905081036 69 0 0.0 0.0 0.00 0.23 0.00 100 1013.2
20260905080534 69 0 0.0 0.0 0.00 0.23 0.00 100 1013.2
20260905075534 69 0 0.0 0.0 0.00 0.23 0.00 100 1013.1
20260905075036 69 0 0.0 0.0 0.00 0.23 0.00 100 1013.2
20260905074552 69 0 0.0 0.0 0.00 0.23 0.00 100 1013.2
20260905074034 70 0 0.0 0.0 0.00 0.23 0.00 100 1013.1
20260905073539 70 0 0.0 0.0 0.00 0.23 0.00 100 1013.2
20260905073100 70 0 0.0 0.0 0.00 0.23 0.00 100 1013.2
20260905072534 70 0 0.0 0.0 0.00 0.23 0.00 100 1013.1
20260905072037 70 0 0.0 0.0 0.00 0.23 0.00 100 1013.1
20260905071555 70 0 0.0 0.0 0.00 0.23 0.00 100 1013.0
20260905071033 70 0 0.0 0.0 0.00 0.23 0.00 100 1013.1
20260905070533 70 0 0.0 0.0 0.00 0.23 0.00 100 1013.1
20260905070106 70 0 0.0 0.0 0.00 0.23 0.00 100 1013.1
20260905065535 69 0 0.0 3.0 0.00 0.23 0.00 100 1013.2
20260905065038 69 0 0.0 3.0 0.00 0.23 0.00 100 1013.2
20260905064552 69 0 0.0 0.0 0.00 0.23 0.00 100 1013.1
20260905064038 70 0 0.0 0.0 0.00 0.23 0.00 100 1012.9
20260905063535 70 0 0.0 0.0 0.00 0.23 0.00 100 1012.9
20260905063059 70 0 0.0 0.0 0.00 0.23 0.00 100 1013.1
20260905062533 70 0 0.0 0.0 0.00 0.23 0.00 100 1013.1
20260905062037 70 0 0.0 0.0 0.00 0.23 0.00 100 1013.1
20260905061605 70 0 0.0 3.0 0.00 0.23 0.00 100 1012.8
20260905061034 70 0 0.0 3.0 0.00 0.23 0.00 99 1012.9
20260905060533 70 0 1.0 3.0 0.00 0.23 0.00 100 1012.9
20260905060054 70 0 0.0 0.0 0.00 0.23 0.00 99 1012.9
20260905055535 70 0 0.0 0.0 0.00 0.23 0.00 99 1013.1
20260905055034 71 0 0.0 0.0 0.00 0.23 0.00 99 1013.2
20260905054556 71 0 0.0 0.0 0.00 0.23 0.00 99 1013.3
20260905054036 71 0 0.0 0.0 0.00 0.23 0.00 99 1013.3
20260905053534 71 0 0.0 0.0 0.00 0.23 0.00 99 1013.3
20260905053048 71 0 0.0 0.0 0.00 0.23 0.00 99 1013.2
20260905052537 71 0 0.0 0.0 0.00 0.23 0.00 100 1013.3
20260905052035 71 0 0.0 0.0 0.00 0.23 0.00 100 1013.3
20260905051556 71 0 0.0 0.0 0.00 0.23 0.00 100 1013.5
20260905051033 71 0 0.0 0.0 0.00 0.23 0.00 100 1013.6
20260905050534 71 0 0.0 3.0 0.00 0.23 0.00 100 1013.4
20260905050053 71 0 0.0 3.0 0.00 0.23 0.00 100 1013.5
20260905045533 71 0 0.0 0.0 0.00 0.23 0.23 100 1013.5
20260905045034 71 0 0.0 0.0 0.00 0.23 0.23 100 1013.6
20260905044553 71 0 0.0 0.0 0.00 0.23 0.23 99 1013.7
20260905044034 71 0 0.0 0.0 0.00 0.23 0.23 99 1013.5
20260905043534 71 0 0.0 0.0 0.00 0.23 0.23 99 1013.7
20260905043048 71 0 0.0 0.0 0.00 0.23 0.23 99 1013.5
20260905042535 71 0 0.0 0.0 0.00 0.23 0.23 99 1013.6
20260905042035 71 0 0.0 0.0 0.00 0.23 0.23 99 1013.5
20260905041556 71 0 0.0 0.0 0.00 0.23 0.23 99 1013.4
20260905041036 71 0 0.0 0.0 0.00 0.23 0.23 99 1013.5
20260905040533 71 0 0.0 0.0 0.00 0.23 0.23 99 1013.6
20260905040056 71 0 0.0 0.0 0.00 0.23 0.23 98 1013.5
20260905035534 71 0 0.0 0.0 0.00 0.23 0.23 98 1013.3
20260905035034 72 0 0.0 0.0 0.00 0.23 0.23 98 1013.1
20260905034600 72 0 0.0 0.0 0.00 0.23 0.23 98 1013.1
20260905034033 72 0 0.0 0.0 0.00 0.23 0.23 98 1013.2
20260905033534 72 0 0.0 0.0 0.00 0.23 0.23 98 1013.3
20260905033105 72 0 0.0 0.0 0.00 0.23 0.23 98 1013.4
20260905032535 72 0 0.0 0.0 0.00 0.23 0.23 98 1013.3
20260905032035 72 0 0.0 0.0 0.00 0.23 0.23 97 1013.4
20260905031607 72 0 0.0 0.0 0.00 0.23 0.23 97 1013.5
20260905031037 73 0 0.0 0.0 0.00 0.23 0.23 97 1013.7
20260905030534 73 0 0.0 0.0 0.00 0.23 0.23 97 1013.7
20260905030104 73 0 0.0 0.0 0.00 0.23 0.23 97 1013.7
20260905025534 73 0 0.0 0.0 0.00 0.23 0.23 96 1013.6
20260905025036 73 0 0.0 1.0 0.00 0.23 0.23 96 1013.7
20260905024601 73 0 0.0 1.0 0.00 0.23 0.23 96 1013.7
20260905024033 73 0 0.0 2.0 0.00 0.23 0.23 96 1013.5
20260905023536 74 0 0.0 3.0 0.00 0.23 0.23 96 1013.5
20260905023056 74 0 0.0 3.0 0.00 0.23 0.23 96 1013.6
20260905022533 74 0 0.0 3.0 0.00 0.23 0.23 95 1013.6
20260905022032 74 0 0.0 0.0 0.00 0.23 0.23 96 1013.7
20260905021553 74 0 0.0 3.0 0.00 0.23 0.23 95 1013.6
20260905021033 74 0 0.0 6.0 0.00 0.23 0.23 95 1013.7
20260905020533 74 93 0.0 6.0 0.00 0.23 0.23 95 1013.5
20260905020058 74 0 1.0 6.0 0.00 0.23 0.23 95 1013.4
20260905015538 75 0 0.0 4.0 0.00 0.23 0.23 95 1013.4
20260905015038 75 0 0.0 4.0 0.00 0.23 0.23 95 1013.4
20260905014559 75 80 0.0 3.0 0.00 0.23 0.23 94 1013.6
20260905014038 75 0 0.0 3.0 0.00 0.23 0.23 94 1013.4
20260905013542 75 0 0.0 2.0 0.00 0.23 0.23 94 1013.3
20260905013101 75 0 0.0 3.0 0.00 0.23 0.23 94 1013.2
20260905012541 76 0 0.0 4.0 0.00 0.23 0.23 94 1013.5
20260905012038 76 0 0.0 4.0 0.00 0.23 0.23 93 1013.5
20260905011556 76 0 0.0 4.0 0.00 0.23 0.23 93 1013.4
20260905011041 76 94 0.0 5.0 0.00 0.23 0.23 93 1013.3
20260905010538 76 44 0.0 5.0 0.00 0.23 0.23 93 1013.1
20260905010055 77 39 0.0 4.0 0.00 0.23 0.23 92 1013.1
20260905005538 77 0 0.0 5.0 0.00 0.23 0.23 92 1013.0
20260905005038 78 46 1.0 5.0 0.00 0.23 0.23 92 1012.8
20260905004634 78 0 0.0 6.0 0.00 0.23 0.23 92 1012.6
20260905004039 79 107 0.0 8.0 0.00 0.23 0.23 92 1012.6
20260905003540 79 0 2.0 8.0 0.00 0.23 0.23 93 1012.3
20260905003100 80 88 0.0 4.0 0.00 0.23 0.23 95 1012.3
20260905002534 80 0 0.0 1.0 0.00 0.23 0.23 95 1012.3
20260905002035 81 0 0.0 0.0 0.00 0.23 0.23 95 1012.1
20260905001606 81 0 0.0 0.0 0.00 0.23 0.23 95 1012.1
20260905001038 81 0 0.0 0.0 0.00 0.23 0.23 95 1012.0
20260905000538 81 0 0.0 0.0 0.00 0.23 0.23 95 1012.0
20260904235538 82 0 0.0 0.0 0.00 0.23 0.23 95 1012.1
20260904235038 82 0 0.0 0.0 0.00 0.23 0.23 95 1012.2
20260904234553 82 0 0.0 0.0 0.00 0.23 0.23 94 1012.3
20260904234038 82 0 0.0 0.0 0.00 0.23 0.23 94 1012.3
20260904233535 82 0 0.0 0.0 0.00 0.23 0.23 94 1012.3
20260904233100 83 0 0.0 0.0 0.00 0.23 0.23 94 1012.1
20260904232538 83 0 0.0 0.0 0.00 0.23 0.23 94 1012.1
20260904232036 83 0 0.0 0.0 0.00 0.23 0.23 93 1011.9
20260904231600 83 0 0.0 0.0 0.00 0.23 0.23 93 1011.8
20260904231034 83 0 0.0 0.0 0.00 0.23 0.23 93 1011.7
20260904230538 84 0 0.0 0.0 0.00 0.23 0.23 93 1011.8
20260904230122 84 0 0.0 0.0 0.00 0.23 0.23 92 1011.9
20260904225539 84 0 0.0 0.0 0.00 0.23 0.23 92 1011.9
20260904225038 84 0 0.0 0.0 0.00 0.23 0.23 90 1011.8
20260904224552 84 0 0.0 0.0 0.00 0.23 0.23 91 1011.7
20260904224040 84 0 0.0 0.0 0.00 0.23 0.23 89 1011.7
20260904223538 85 0 0.0 0.0 0.00 0.23 0.23 89 1011.8
20260904223106 85 0 0.0 0.0 0.00 0.23 0.23 89 1011.9
20260904222538 85 0 0.0 0.0 0.00 0.23 0.23 89 1011.8
20260904222038 85 0 0.0 0.0 0.00 0.23 0.23 87 1011.8
20260904221555 85 0 0.0 0.0 0.00 0.23 0.23 87 1011.8
20260904221038 85 0 0.0 1.0 0.00 0.23 0.23 87 1011.8
20260904220535 85 0 0.0 1.0 0.00 0.23 0.23 85 1011.8
20260904220055 85 0 0.0 4.0 0.00 0.23 0.23 85 1011.8
20260904215539 85 209 0.0 6.0 0.00 0.23 0.23 85 1011.8
20260904215037 86 212 2.0 6.0 0.00 0.23 0.23 83 1011.8
20260904214551 86 229 1.0 7.0 0.00 0.23 0.23 84 1011.7
20260904214039 86 222 2.0 7.0 0.00 0.23 0.23 84 1011.8
20260904213538 86 206 2.0 10.0 0.00 0.23 0.23 83 1011.9
20260904213055 86 0 2.0 11.0 0.00 0.23 0.23 83 1011.7
20260904212539 86 214 3.0 11.0 0.00 0.23 0.23 82 1011.8
20260904212038 86 203 3.0 8.0 0.00 0.23 0.23 83 1011.8
20260904211552 86 202 3.0 8.0 0.00 0.23 0.23 83 1011.8
20260904211037 86 196 1.0 9.0 0.00 0.23 0.23 86 1011.7
20260904210538 86 268 2.0 9.0 0.00 0.23 0.23 84 1011.8
20260904210109 85 269 2.0 9.0 0.00 0.23 0.23 84 1011.7
20260904205539 85 185 2.0 9.0 0.00 0.23 0.23 85 1011.7
20260904205036 85 209 2.0 7.0 0.00 0.23 0.23 85 1011.5
20260904204555 85 0 3.0 8.0 0.00 0.23 0.23 84 1011.5
20260904204036 85 205 4.0 8.0 0.00 0.23 0.23 84 1011.6
20260904203539 85 207 2.0 7.0 0.00 0.23 0.23 85 1011.7
20260904203058 85 194 3.0 8.0 0.00 0.23 0.23 85 1011.6
20260904202536 85 210 3.0 8.0 0.00 0.23 0.23 84 1011.7
20260904202036 85 201 2.0 9.0 0.00 0.23 0.23 84 1011.8
20260904201551 84 215 4.0 9.0 0.00 0.23 0.23 83 1011.8
20260904201038 84 213 4.0 10.0 0.00 0.23 0.23 83 1012.0
20260904200536 84 213 4.0 10.0 0.00 0.23 0.23 84 1012.2
20260904200052 84 229 4.0 11.0 0.00 0.23 0.23 85 1012.2
20260904195538 84 170 5.0 11.0 0.00 0.23 0.23 84 1012.2
20260904195036 83 209 3.0 8.0 0.00 0.23 0.23 86 1012.2
20260904194607 82 253 2.0 8.0 0.00 0.23 0.23 87 1012.4
20260904194038 82 196 4.0 8.0 0.00 0.23 0.23 84 1012.5
20260904193541 82 196 3.0 7.0 0.00 0.23 0.23 86 1012.4
20260904193053 82 200 3.0 10.0 0.00 0.23 0.23 87 1012.6
20260904192539 82 202 4.0 11.0 0.00 0.23 0.23 84 1012.6
20260904192041 82 204 5.0 11.0 0.00 0.23 0.23 85 1012.8
20260904191554 82 182 4.0 9.0 0.00 0.23 0.23 87 1012.9
20260904191036 82 194 3.0 8.0 0.00 0.23 0.23 87 1013.1
20260904190536 81 303 1.0 8.0 0.00 0.23 0.23 90 1013.0
20260904190059 80 219 4.0 8.0 0.00 0.23 0.23 87 1012.9
20260904185534 80 202 2.0 11.0 0.00 0.23 0.23 87 1012.8
20260904185034 80 215 1.0 12.0 0.00 0.23 0.23 87 1012.9
20260904184557 81 180 6.0 12.0 0.00 0.23 0.23 85 1012.8
20260904184034 81 200 5.0 11.0 0.00 0.23 0.23 87 1012.7
20260904183537 81 193 6.0 12.0 0.00 0.23 0.23 88 1012.6
20260904183111 80 198 6.0 14.0 0.00 0.23 0.23 89 1012.9
20260904182537 80 202 7.0 14.0 0.00 0.23 0.23 89 1012.9
20260904182035 79 161 6.0 12.0 0.00 0.23 0.23 88 1013.1
20260904181552 79 186 5.0 11.0 0.00 0.23 0.23 90 1013.6
20260904181037 79 176 5.0 12.0 0.00 0.23 0.23 92 1013.6
20260904180540 78 178 3.0 12.0 0.00 0.23 0.23 93 1013.6
20260904175534 76 182 6.0 11.0 0.00 0.23 0.23 95 1013.6
20260904175039 75 166 3.0 8.0 0.00 0.23 0.23 97 1013.7
20260904174553 74 0 3.0 8.0 0.00 0.23 0.23 96 1013.9
20260904174038 73 201 3.0 8.0 0.00 0.23 0.23 97 1013.8
20260904173537 73 222 4.0 10.0 0.00 0.23 0.23 97 1013.7
20260904173104 72 198 3.0 10.0 0.00 0.23 0.23 97 1013.8
20260904172534 72 199 5.0 9.0 0.00 0.23 0.23 97 1013.9
20260904172035 72 151 2.0 11.0 0.00 0.23 0.23 98 1013.7
20260904171556 71 215 1.0 11.0 0.00 0.23 0.23 98 1013.8
20260904171037 71 222 4.0 12.0 0.00 0.23 0.23 98 1013.8
20260904170541 71 210 5.0 17.0 0.00 0.23 0.23 98 1013.5
20260904170058 71 211 7.0 17.0 0.00 0.23 0.23 98 1013.4
20260904165538 71 212 6.0 14.0 0.01 0.40 0.23 99 1013.3
20260904165038 71 221 4.0 14.0 0.05 0.40 0.23 99 1013.7
20260904164553 71 176 6.0 14.0 0.12 0.40 0.23 99 1014.1
20260904164037 70 180 6.0 14.0 0.18 0.40 0.23 99 1014.3
20260904163534 70 211 6.0 14.0 0.19 0.40 0.23 99 1014.5